Baraboo, WI

9:43 PM CDT on June 23, 2017 (GMT -0500)
Baraboo Wisconsin Dells

Weather History for KDLL - May, 2014

Change the Weather History Date:

Sunday, May 11, 2014

  Actual Average Record
Temperature  
Mean Temperature 63 °F -  
Max Temperature 75 °F 69 °F 85 °F (1993)
Min Temperature 51 °F 43 °F 28 °F (1989)
Degree Days  
Heating Degree Days 2    
Growing Degree Days 13 (Base 50)    
Moisture  
Dew Point 53 °F    
Average Humidity 68    
Maximum Humidity 85    
Minimum Humidity 51    
Precipitation  
Precipitation 0.04 in - - ()
Sea Level Pressure  
Sea Level Pressure 29.89 in    
Wind  
Wind Speed 6 mph (SE)    
Max Wind Speed 13 mph    
Max Gust Speed 17 mph    
Visibility 10 miles    
Events Rain , Thunderstorm    
Averages and records for this station are not official NWS values.
T = Trace of Precipitation, MM = Missing Value Source: NWS Daily Summary

Daily Weather History Graph

Daily Weather History Graph

Search for Another Location

Airport or City:

Trip Planner

Search our weather history database for the weather conditions in past years. The results will help you decide how hot, cold, wet, or windy it might be!

Date:

Astronomy

May. 11, 2014 Rise Set
Actual Time 5:38 AM CDT 8:12 PM CDT
Civil Twilight 5:06 AM CDT 8:45 PM CDT
Nautical Twilight 4:25 AM CDT 9:26 PM CDT
Astronomical Twilight 3:39 AM CDT 10:12 PM CDT
Moon 5:03 PM CDT (5/11) 3:50 AM CDT (5/11)
Length of Visible Light 15h 39m
Length of Day
14h 33m
Waxing Gibbous, 89% of the Moon is Illuminated
May 11
Waxing Gibbous
May 14
Full
May 21
Last Quarter
May 28
New
Jun 5
First Quarter

Hourly Weather History & Observations

Time (CDT) Temp. Dew Point Humidity Pressure Visibility Wind Dir Wind Speed Gust Speed Precip Events Conditions
12:15 AM 58.5 °F 45.7 °F 62% 29.91 in 10.0 mi ESE 4.6 mph - N/A   Scattered Clouds
12:35 AM 57.0 °F 45.3 °F 65% 29.91 in 10.0 mi East 4.6 mph - N/A   Clear
12:55 AM 56.3 °F 44.6 °F 65% 29.90 in 10.0 mi East 5.8 mph - N/A   Clear
1:15 AM 54.7 °F 44.6 °F 69% 29.89 in 10.0 mi ESE 5.8 mph - N/A   Clear
1:35 AM 55.2 °F 43.7 °F 65% 29.89 in 10.0 mi Calm Calm - N/A   Clear
1:55 AM 56.5 °F 42.8 °F 60% 29.90 in 10.0 mi Calm Calm - N/A   Clear
2:15 AM 53.4 °F 43.3 °F 69% 29.90 in 10.0 mi NNE 3.5 mph - N/A   Scattered Clouds
2:35 AM 53.2 °F 43.3 °F 69% 29.90 in 10.0 mi ENE 4.6 mph - N/A   Overcast
2:55 AM 53.8 °F 42.3 °F 65% 29.90 in 10.0 mi Calm Calm - N/A   Mostly Cloudy
3:15 AM 55.0 °F 43.0 °F 64% 29.90 in 10.0 mi SE 6.9 mph - N/A   Scattered Clouds
3:35 AM 57.0 °F 42.6 °F 59% 29.90 in 10.0 mi ESE 4.6 mph - N/A   Scattered Clouds
3:55 AM 54.7 °F 42.8 °F 64% 29.90 in 10.0 mi NE 3.5 mph - N/A   Mostly Cloudy
4:15 AM 54.7 °F 42.8 °F 64% 29.90 in 10.0 mi SSE 8.1 mph - N/A   Scattered Clouds
4:35 AM 54.5 °F 42.8 °F 65% 29.90 in 10.0 mi SSE 5.8 mph - N/A   Clear
4:55 AM 56.5 °F 41.9 °F 58% 29.90 in 10.0 mi SSE 3.5 mph - N/A   Clear
5:15 AM 55.4 °F 41.4 °F 59% 29.89 in 10.0 mi SSE 3.5 mph - N/A   Clear
5:35 AM 51.4 °F 41.9 °F 70% 29.89 in 10.0 mi ESE 3.5 mph - N/A   Clear
5:55 AM 53.6 °F 41.9 °F 65% 29.89 in 10.0 mi SE 5.8 mph - N/A   Clear
6:15 AM 53.4 °F 42.4 °F 66% 29.89 in 10.0 mi SSE 5.8 mph - N/A   Clear
6:35 AM 53.8 °F 44.8 °F 72% 29.89 in 10.0 mi SE 5.8 mph - N/A   Clear
6:55 AM 57.0 °F 45.1 °F 64% 29.89 in 10.0 mi SSE 4.6 mph - N/A   Clear
7:15 AM 59.2 °F 45.9 °F 61% 29.89 in 10.0 mi SE 4.6 mph - N/A   Clear
7:35 AM 61.0 °F 46.8 °F 59% 29.89 in 10.0 mi SSE 6.9 mph - N/A   Clear
7:55 AM 61.9 °F 46.8 °F 58% 29.90 in 10.0 mi South 12.7 mph 16.1 mph N/A   Clear
8:15 AM 63.1 °F 48.6 °F 59% 29.90 in 10.0 mi SSW 8.1 mph - N/A   Clear
8:35 AM 63.7 °F 49.6 °F 60% 29.90 in 10.0 mi SSW 8.1 mph - N/A   Clear
8:55 AM 63.9 °F 50.2 °F 61% 29.91 in 10.0 mi South 12.7 mph 17.3 mph N/A   Clear
9:15 AM 64.9 °F 51.1 °F 61% 29.91 in 10.0 mi SSW 6.9 mph - N/A   Clear
9:35 AM 66.0 °F 52.3 °F 61% 29.91 in 10.0 mi WSW 8.1 mph - N/A   Clear
9:55 AM 66.6 °F 52.5 °F 61% 29.91 in 10.0 mi WSW 9.2 mph - N/A   Clear
10:15 AM 68.0 °F 53.2 °F 59% 29.90 in 10.0 mi SSW 5.8 mph - N/A   Clear
10:35 AM 69.1 °F 53.6 °F 58% 29.90 in 10.0 mi WSW 6.9 mph - N/A   Clear
10:55 AM 70.0 °F 53.2 °F 55% 29.91 in 10.0 mi WSW 4.6 mph - N/A   Clear
11:15 AM 71.1 °F 53.8 °F 54% 29.90 in 10.0 mi Calm Calm - N/A   Clear
11:55 AM 73.4 °F 54.3 °F 51% 29.89 in 10.0 mi West 3.5 mph - N/A   Clear
12:15 PM 74.3 °F 56.1 °F 53% 29.89 in 10.0 mi SW 4.6 mph - N/A   Clear
12:35 PM 75.0 °F 56.7 °F 53% 29.89 in 10.0 mi SSE 3.5 mph - N/A   Clear
12:55 PM 74.5 °F 56.7 °F 54% 29.90 in 10.0 mi SW 4.6 mph - N/A   Clear
1:15 PM 74.5 °F 56.8 °F 54% 29.90 in 10.0 mi South 9.2 mph - N/A   Clear
1:35 PM 74.5 °F 56.8 °F 54% 29.89 in 10.0 mi South 8.1 mph - N/A   Clear
1:55 PM 73.8 °F 57.9 °F 58% 29.89 in 10.0 mi SSW 9.2 mph - N/A   Clear
2:15 PM 74.1 °F 57.6 °F 56% 29.89 in 10.0 mi WSW 8.1 mph - N/A   Scattered Clouds
2:35 PM 73.9 °F 57.9 °F 57% 29.89 in 10.0 mi SW 9.2 mph - N/A   Overcast
2:55 PM 72.7 °F 57.9 °F 60% 29.89 in 10.0 mi SW 6.9 mph - N/A   Overcast
3:15 PM 70.9 °F 58.8 °F 66% 29.90 in 10.0 mi WSW 8.1 mph - N/A Rain , Thunderstorm Light Thunderstorms and Rain
3:35 PM 68.9 °F 59.2 °F 71% 29.91 in 10.0 mi West 8.1 mph - N/A Rain Light Rain
3:55 PM 67.1 °F 60.4 °F 79% 29.91 in 7.0 mi West 5.8 mph - 0.01 in Rain Rain
4:15 PM 66.2 °F 61.7 °F 85% 29.90 in 5.0 mi WNW 3.5 mph - 0.03 in Rain Light Rain
4:35 PM 66.4 °F 61.5 °F 84% 29.87 in 10.0 mi NNW 5.8 mph - 0.03 in Thunderstorm Mostly Cloudy
4:50 PM 66.9 °F 61.9 °F 84% 29.87 in 10.0 mi Calm Calm - 0.03 in   Mostly Cloudy
5:15 PM 68.0 °F 61.3 °F 79% 29.87 in 10.0 mi Calm Calm - N/A   Scattered Clouds
5:35 PM 68.9 °F 61.5 °F 77% 29.86 in 10.0 mi NE 8.1 mph - N/A   Scattered Clouds
5:55 PM 68.2 °F 60.4 °F 76% 29.87 in 10.0 mi NE 8.1 mph - N/A   Clear
6:15 PM 68.0 °F 59.7 °F 75% 29.87 in 10.0 mi NE 8.1 mph - N/A   Clear
6:35 PM 67.6 °F 59.5 °F 75% 29.86 in 10.0 mi ENE 9.2 mph - N/A   Scattered Clouds
6:55 PM 68.0 °F 59.0 °F 73% 29.87 in 10.0 mi East 9.2 mph - N/A   Scattered Clouds
7:15 PM 67.1 °F 58.8 °F 75% 29.87 in 10.0 mi ENE 8.1 mph - N/A   Clear
7:35 PM 66.0 °F 57.7 °F 75% 29.88 in 10.0 mi ENE 3.5 mph - N/A   Clear
7:55 PM 65.3 °F 58.1 °F 77% 29.88 in 10.0 mi ENE 5.8 mph - N/A   Scattered Clouds
8:15 PM 64.8 °F 58.1 °F 79% 29.86 in 10.0 mi ENE 9.2 mph - N/A   Mostly Cloudy
8:35 PM 64.6 °F 58.1 °F 79% 29.84 in 10.0 mi ENE 11.5 mph - N/A   Mostly Cloudy
8:55 PM 64.2 °F 58.1 °F 80% 29.86 in 10.0 mi East 8.1 mph - N/A   Mostly Cloudy
9:15 PM 63.5 °F 58.1 °F 83% 29.87 in 10.0 mi East 9.2 mph - N/A   Scattered Clouds
9:35 PM 63.3 °F 58.1 °F 83% 29.88 in 10.0 mi East 10.4 mph - N/A   Clear
9:55 PM 63.1 °F 58.1 °F 84% 29.87 in 10.0 mi East 10.4 mph - N/A   Scattered Clouds
10:15 PM 62.8 °F 58.1 °F 85% 29.87 in 10.0 mi East 9.2 mph - N/A   Scattered Clouds
10:35 PM 62.6 °F 58.1 °F 85% 29.87 in 10.0 mi East 8.1 mph - N/A   Mostly Cloudy
10:55 PM 62.6 °F 57.7 °F 84% 29.87 in 10.0 mi ESE 6.9 mph - N/A   Overcast
11:15 PM 63.5 °F 57.6 °F 81% 29.87 in 10.0 mi East 5.8 mph - N/A Thunderstorm Overcast
11:35 PM 63.5 °F 57.4 °F 80% 29.86 in 10.0 mi ESE 10.4 mph - N/A   Overcast
11:55 PM 63.9 °F 57.6 °F 80% 29.87 in 10.0 mi ESE 6.9 mph - N/A   Mostly Cloudy